Regional Weather Roundup
Issued by NWS

Home | Current Version | Previous Version | Text Only | Print | Product List | Glossary Off
Versions: 1 2 3 4 5 6 7 8 9 10 11 12 13 14 15 16 17 18 19 20 21 22 23 24 25 26 27 28 29 30 31 32 33 34 35 36 37 38 39 40 41 42 43 44 45 46 47 48 49 50

000
ASUS43 KLMK 180810
RWRKY
KENTUCKY REGIONAL WEATHER ROUNDUP
NATIONAL WEATHER SERVICE LOUISVILLE KY
400 AM EDT FRI AUG 18 2017

NOTE "FAIR" INDICATES FEW OR NO CLOUDS BELOW 12,000 FEET
WITH NO SIGNIFICANT WEATHER AND/OR OBSTRUCTIONS TO VISIBILITY.

KYZ001>023-026-027-061>063-070>075-180900-
WESTERN AND SOUTH CENTRAL KENTUCKY

CITY           SKY/WX    TMP DP  RH WIND       PRES   REMARKS
PADUCAH        PTCLDY    72  69  90 SW6       29.91S
HENDERSON      CLEAR     72  69  90 W3        29.90R
OWENSBORO      MOCLDY    73  71  93 W5        29.89S
HOPKINSVILLE   PTCLDY    75  75  98 W9        29.91S
BOWLING GREEN  CLOUDY    76  76 100 SW6       29.90F
GLASGOW        CLOUDY    74  74 100 SW7       29.91S
$$

KYZ024-025-028>034-038-045-046-053-180900-
NORTH CENTRAL KENTUCKY

CITY           SKY/WX    TMP DP  RH WIND       PRES   REMARKS
LOUISVILLE/SDF PTCLDY    75  73  93 W8        29.86S
LOUISVILLE/LOU MOCLDY    74  74 100 SW6       29.86F
FORT KNOX      PTCLDY    73  73 100 W7        29.86F
$$

KYZ035>037-039>044-047>052-055>060-089>105-180900-
NORTHEAST KENTUCKY

CITY           SKY/WX    TMP DP  RH WIND       PRES   REMARKS
LEXINGTON      CLOUDY    74  71  91 SW7       29.89S
COVINGTON      CLOUDY    74  74 100 SW6       29.85S
FRANKFORT      CLOUDY    74  71  91 SW5       29.87S
$$

KYZ054-064>069-076>088-106>120-180900-
SOUTHEAST KENTUCKY

CITY           SKY/WX    TMP DP  RH WIND       PRES   REMARKS
JACKSON        CLOUDY    74  71  91 CALM      29.92S
LONDON         LGT RAIN  74  71  91 SW9       29.93S
SOMERSET       CLOUDY    72  72 100 W7        29.93F
MIDDLESBORO    PTCLDY    71  71 100 CALM      29.94F
MONTICELLO     LGT RAIN  74  72  93 W13G18    29.94F
$$




USA.gov is the U.S. government's official web portal to all federal, state and local government web resources and services.